,,Stat6,,Stat2,,Stat8,,Stat9,,Stat10,,Wind1,,Wind1,
time,status,PA1M_AVG,status,PR1M_SUM,status,RH1M_AVG,status,SR1M_AVG,status,TA1M_AVG,status,W1dAve1m,status,W1sAve1m,
2005-01-16, 00:00:00,VALID,918.262,VALID,0,VALID,94.0911,VALID,-0.0169808,VALID,20.1885,VALID,134,VALID,1.67626,
2005-01-16, 00:01:00,VALID,918.253,VALID,0,VALID,94.1471,VALID,-0.0339617,VALID,20.217,VALID,132,VALID,1.67503,
2005-01-16, 00:02:00,VALID,918.248,VALID,0,VALID,94.1585,VALID,-0.0339617,VALID,20.22,VALID,121,VALID,1.78486,
2005-01-16, 00:03:00,VALID,918.261,VALID,0,VALID,94.1458,VALID,-0.0679233,VALID,20.2267,VALID,127,VALID,1.38177,
2005-01-16, 00:04:00,VALID,918.241,VALID,0,VALID,94.3098,VALID,-0.0509425,VALID,20.2046,VALID,137,VALID,1.6849,
2005-01-16, 00:05:00,VALID,918.248,VALID,0,VALID,94.3238,VALID,-0.0679233,VALID,20.185,VALID,132,VALID,1.70486,
2005-01-16, 00:06:00,VALID,918.227,VALID,0,VALID,94.2005,VALID,-0.0849042,VALID,20.1885,VALID,127,VALID,1.81101,
2005-01-16, 00:07:00,VALID,918.229,VALID,0,VALID,93.9919,VALID,-0.0339617,VALID,20.2267,VALID,140,VALID,1.64347,
2005-01-16, 00:08:00,VALID,918.224,VALID,0,VALID,93.9029,VALID,-0.0339617,VALID,20.2426,VALID,128,VALID,1.42309,
2005-01-16, 00:09:00,VALID,918.215,VALID,0,VALID,93.9907,VALID,0,VALID,20.2429,VALID,135,VALID,1.77012,
2005-01-16, 00:10:00,VALID,918.184,VALID,0,VALID,94.0631,VALID,-0.0509425,VALID,20.2367,VALID,131,VALID,1.86991,
2005-01-16, 00:11:00,VALID,918.173,VALID,0,VALID,94.1394,VALID,-0.0339617,VALID,20.2138,VALID,136,VALID,2.18332,
2005-01-16, 00:12:00,VALID,918.153,VALID,0,VALID,94.189,VALID,-0.0339617,VALID,20.2173,VALID,134,VALID,1.88245,
2005-01-16, 00:13:00,VALID,918.148,VALID,0,VALID,94.2005,VALID,-0.0169808,VALID,20.2006,VALID,132,VALID,1.84961,
2005-01-16, 00:14:00,VALID,918.146,VALID,0,VALID,94.2501,VALID,-0.0679233,VALID,20.1944,VALID,118,VALID,1.2429,
2005-01-16, 00:15:00,VALID,918.129,VALID,0,VALID,94.2895,VALID,-0.0509425,VALID,20.1586,VALID,134,VALID,1.59102,
2005-01-16, 00:16:00,VALID,918.136,VALID,0,VALID,94.3086,VALID,-0.0339617,VALID,20.1524,VALID,124,VALID,1.35605,
2005-01-16, 00:17:00,VALID,918.127,VALID,0,VALID,94.3798,VALID,-0.0679233,VALID,20.1427,VALID,143,VALID,1.52448,
2005-01-16, 00:18:00,VALID,918.115,VALID,0,VALID,94.4243,VALID,-0.0679233,VALID,20.1495,VALID,141,VALID,1.77439,
2005-01-16, 00:19:00,VALID,918.082,VALID,0,VALID,94.4535,VALID,-0.0169808,VALID,20.1462,VALID,129,VALID,0.915777,
2005-01-16, 00:20:00,VALID,918.071,VALID,0,VALID,94.4675,VALID,0.0339617,VALID,20.1256,VALID,127,VALID,0.874273,
2005-01-16, 00:21:00,VALID,918.07,VALID,0,VALID,94.4383,VALID,0.0339617,VALID,20.1189,VALID,148,VALID,1.39751,
2005-01-16, 00:22:00,VALID,918.07,VALID,0,VALID,94.3111,VALID,0.0509425,VALID,20.1218,VALID,130,VALID,1.31194,
2005-01-16, 00:23:00,VALID,918.097,VALID,0,VALID,94.3683,VALID,0.0679233,VALID,20.1221,VALID,128,VALID,1.43178,
2005-01-16, 00:24:00,VALID,918.105,VALID,0,VALID,94.3988,VALID,0.0509425,VALID,20.1154,VALID,125,VALID,1.51529,
2005-01-16, 00:25:00,VALID,918.11,VALID,0,VALID,94.423,VALID,0.0339617,VALID,20.1089,VALID,129,VALID,1.4282,
2005-01-16, 00:26:00,VALID,918.106,VALID,0,VALID,94.5514,VALID,0.0849042,VALID,20.0925,VALID,136,VALID,1.54783,
2005-01-16, 00:27:00,VALID,918.108,VALID,0,VALID,94.6328,VALID,0.0849042,VALID,20.0965,VALID,138,VALID,1.31534,
2005-01-16, 00:28:00,VALID,918.124,VALID,0,VALID,94.6557,VALID,0.0339617,VALID,20.0543,VALID,105,VALID,1.38608,
2005-01-16, 00:29:00,VALID,918.13,VALID,0,VALID,94.9571,VALID,0.0849042,VALID,20.0021,VALID,103,VALID,1.4295,
2005-01-16, 00:30:00,VALID,918.126,VALID,0,VALID,95.2394,VALID,0.0509425,VALID,19.9504,VALID,110,VALID,1.39392,
2005-01-16, 00:31:00,VALID,918.119,VALID,0,VALID,95.5471,VALID,0.0339617,VALID,19.9027,VALID,113,VALID,1.7428,
2005-01-16, 00:32:00,VALID,918.098,VALID,0,VALID,95.7518,VALID,0.0849042,VALID,19.8766,VALID,142,VALID,2.04173,
2005-01-16, 00:33:00,VALID,918.11,VALID,0,VALID,95.3449,VALID,0.0339617,VALID,19.9054,VALID,123,VALID,2.73672,
2005-01-16, 00:34:00,VALID,918.098,VALID,0,VALID,94.7269,VALID,0.0169808,VALID,20.0028,VALID,121,VALID,2.37917,
2005-01-16, 00:35:00,VALID,918.089,VALID,0,VALID,94.4103,VALID,-0.0679233,VALID,20.1107,VALID,133,VALID,1.89662,
2005-01-16, 00:36:00,VALID,918.09,VALID,0,VALID,94.4421,VALID,-0.0339617,VALID,20.1137,VALID,128,VALID,1.64471,
2005-01-16, 00:37:00,VALID,918.089,VALID,0,VALID,94.5858,VALID,-0.0679233,VALID,20.0975,VALID,130,VALID,1.54809,
2005-01-16, 00:38:00,VALID,918.083,VALID,0,VALID,94.7981,VALID,-0.0509425,VALID,20.0685,VALID,127,VALID,2.05413,
2005-01-16, 00:39:00,VALID,918.071,VALID,0,VALID,94.9634,VALID,-0.0679233,VALID,20.0359,VALID,116,VALID,1.75362,
2005-01-16, 00:40:00,VALID,918.063,VALID,0,VALID,95.1186,VALID,-0.0679233,VALID,20.017,VALID,118,VALID,2.33727,
2005-01-16, 00:41:00,VALID,918.037,VALID,0,VALID,95.1262,VALID,-0.0849042,VALID,20.0038,VALID,128,VALID,1.85139,
2005-01-16, 00:42:00,VALID,918.013,VALID,0,VALID,95.2063,VALID,-0.0339617,VALID,19.978,VALID,119,VALID,1.95536,
2005-01-16, 00:43:00,VALID,917.982,VALID,0,VALID,95.2737,VALID,-0.0509425,VALID,19.9487,VALID,117,VALID,1.7927,
2005-01-16, 00:44:00,VALID,917.963,VALID,0,VALID,95.3551,VALID,-0.0339617,VALID,19.946,VALID,120,VALID,1.76215,
2005-01-16, 00:45:00,VALID,917.952,VALID,0,VALID,95.4199,VALID,-0.0339617,VALID,19.9226,VALID,98,VALID,1.42151,
2005-01-16, 00:46:00,VALID,917.922,VALID,0,VALID,95.5649,VALID,-0.0339617,VALID,19.8908,VALID,117,VALID,1.30488,
2005-01-16, 00:47:00,VALID,917.93,VALID,0,VALID,95.7849,VALID,-0.0509425,VALID,19.8518,VALID,110,VALID,1.87155,
2005-01-16, 00:48:00,VALID,917.893,VALID,0,VALID,96.0023,VALID,-0.0339617,VALID,19.8165,VALID,113,VALID,1.6161,
2005-01-16, 00:49:00,VALID,917.878,VALID,0,VALID,96.2783,VALID,0,VALID,19.7807,VALID,111,VALID,2.03032,
2005-01-16, 00:50:00,VALID,917.868,VALID,0,VALID,96.4054,VALID,0,VALID,19.7479,VALID,113,VALID,1.41825,
2005-01-16, 00:51:00,VALID,917.857,VALID,0,VALID,96.4461,VALID,0,VALID,19.732,VALID,112,VALID,1.65383,
2005-01-16, 00:52:00,VALID,917.879,VALID,0,VALID,96.4448,VALID,0,VALID,19.7223,VALID,105,VALID,1.83873,
2005-01-16, 00:53:00,VALID,917.862,VALID,0,VALID,96.3596,VALID,0,VALID,19.7223,VALID,109,VALID,1.66071,
2005-01-16, 00:54:00,VALID,917.861,VALID,0,VALID,96.3088,VALID,0,VALID,19.7256,VALID,112,VALID,1.65086,
2005-01-16, 00:55:00,VALID,917.839,VALID,0,VALID,96.4283,VALID,-0.0339617,VALID,19.7226,VALID,104,VALID,1.53835,
2005-01-16, 00:56:00,VALID,917.836,VALID,0,VALID,96.5542,VALID,0,VALID,19.7035,VALID,96,VALID,1.75728,
2005-01-16, 00:57:00,VALID,917.816,VALID,0,VALID,96.7818,VALID,-0.0339617,VALID,19.658,VALID,100,VALID,1.61381,
2005-01-16, 00:58:00,VALID,917.8,VALID,0,VALID,97.0082,VALID,0,VALID,19.6354,VALID,102,VALID,1.6934,
2005-01-16, 00:59:00,VALID,917.799,VALID,0,VALID,96.9001,VALID,0,VALID,19.622,VALID,116,VALID,1.38565,
2005-01-16, 01:00:00,VALID,917.799,VALID,0,VALID,96.8098,VALID,-0.0169808,VALID,19.6227,VALID,118,VALID,1.55729,
2005-01-16, 01:01:00,VALID,917.784,VALID,0,VALID,96.7411,VALID,0,VALID,19.6294,VALID,130,VALID,1.66692,
2005-01-16, 01:02:00,VALID,917.776,VALID,0,VALID,96.5911,VALID,-0.0169808,VALID,19.6515,VALID,123,VALID,1.91959,
2005-01-16, 01:03:00,VALID,917.781,VALID,0,VALID,96.2567,VALID,0.0169808,VALID,19.703,VALID,132,VALID,1.91388,
2005-01-16, 01:04:00,VALID,917.789,VALID,0,VALID,95.8993,VALID,0.0169808,VALID,19.7611,VALID,126,VALID,1.58371,
2005-01-16, 01:05:00,VALID,917.808,VALID,0,VALID,95.5611,VALID,0,VALID,19.8165,VALID,108,VALID,1.47433,
2005-01-16, 01:06:00,VALID,917.784,VALID,0,VALID,95.3703,VALID,0,VALID,19.8456,VALID,117,VALID,1.51308,
2005-01-16, 01:07:00,VALID,917.782,VALID,0,VALID,95.322,VALID,0,VALID,19.8456,VALID,111,VALID,1.27772,
2005-01-16, 01:08:00,VALID,917.772,VALID,0,VALID,95.3818,VALID,-0.0169808,VALID,19.8359,VALID,110,VALID,1.38463,
2005-01-16, 01:09:00,VALID,917.744,VALID,0,VALID,95.4466,VALID,-0.0169808,VALID,19.8361,VALID,103,VALID,1.33155,
2005-01-16, 01:10:00,VALID,917.719,VALID,0,VALID,95.4632,VALID,-0.0339617,VALID,19.8001,VALID,111,VALID,1.71646,
2005-01-16, 01:11:00,VALID,917.711,VALID,0,VALID,95.392,VALID,-0.0339617,VALID,19.8103,VALID,104,VALID,1.46584,
2005-01-16, 01:12:00,VALID,917.711,VALID,0,VALID,95.1974,VALID,0,VALID,19.81,VALID,117,VALID,1.38597,
2005-01-16, 01:13:00,VALID,917.703,VALID,0,VALID,95.0486,VALID,0,VALID,19.8292,VALID,131,VALID,1.32031,
2005-01-16, 01:14:00,VALID,917.712,VALID,0,VALID,94.8579,VALID,0,VALID,19.8617,VALID,128,VALID,1.63517,
2005-01-16, 01:15:00,VALID,917.71,VALID,0,VALID,94.6582,VALID,-0.0169808,VALID,19.8975,VALID,112,VALID,1.69331,
2005-01-16, 01:16:00,VALID,917.706,VALID,0,VALID,94.437,VALID,-0.0169808,VALID,19.9228,VALID,112,VALID,1.77858,
2005-01-16, 01:17:00,VALID,917.697,VALID,0,VALID,94.161,VALID,-0.0169808,VALID,19.9646,VALID,112,VALID,2.0316,
2005-01-16, 01:18:00,VALID,917.709,VALID,0,VALID,93.8927,VALID,0,VALID,20.0235,VALID,107,VALID,2.01254,
2005-01-16, 01:19:00,VALID,917.73,VALID,0,VALID,93.8635,VALID,0,VALID,20.0364,VALID,103,VALID,1.54609,
2005-01-16, 01:20:00,VALID,917.737,VALID,0,VALID,94.0873,VALID,-0.0169808,VALID,20.0133,VALID,111,VALID,1.73417,
2005-01-16, 01:21:00,VALID,917.728,VALID,0,VALID,94.2234,VALID,-0.0169808,VALID,19.9904,VALID,114,VALID,2.1351,
2005-01-16, 01:22:00,VALID,917.735,VALID,0,VALID,94.2068,VALID,-0.0169808,VALID,19.9976,VALID,106,VALID,1.36083,
2005-01-16, 01:23:00,VALID,917.714,VALID,0,VALID,94.128,VALID,0,VALID,19.9705,VALID,117,VALID,1.84251,
2005-01-16, 01:24:00,VALID,917.713,VALID,0,VALID,94.0453,VALID,-0.0169808,VALID,19.9937,VALID,110,VALID,1.62843,
2005-01-16, 01:25:00,VALID,917.689,VALID,0,VALID,94.0911,VALID,-0.0169808,VALID,19.9942,VALID,126,VALID,2.13881,
2005-01-16, 01:26:00,VALID,917.676,VALID,0,VALID,94.0644,VALID,-0.0169808,VALID,20.0068,VALID,138,VALID,2.03981,
2005-01-16, 01:27:00,VALID,917.673,VALID,0,VALID,93.9042,VALID,0,VALID,20.0133,VALID,133,VALID,2.5814,
2005-01-16, 01:28:00,VALID,917.671,VALID,0,VALID,93.7033,VALID,0,VALID,20.0491,VALID,131,VALID,2.36337,
2005-01-16, 01:29:00,VALID,917.662,VALID,0,VALID,93.3841,VALID,0,VALID,20.0908,VALID,124,VALID,2.40234,
2005-01-16, 01:30:00,VALID,917.642,VALID,0,VALID,92.9785,VALID,-0.0169808,VALID,20.1815,VALID,110,VALID,2.13844,
2005-01-16, 01:31:00,VALID,917.645,VALID,0,VALID,92.7076,VALID,-0.0509425,VALID,20.2165,VALID,106,VALID,2.02306,
2005-01-16, 01:32:00,VALID,917.639,VALID,0,VALID,92.2486,VALID,0,VALID,20.2615,VALID,99,VALID,2.27198,
2005-01-16, 01:33:00,VALID,917.611,VALID,0,VALID,91.8912,VALID,0,VALID,20.3398,VALID,125,VALID,2.62551,
2005-01-16, 01:34:00,VALID,917.589,VALID,0,VALID,91.7348,VALID,0,VALID,20.3748,VALID,128,VALID,1.71264,
2005-01-16, 01:35:00,VALID,917.574,VALID,0,VALID,91.6051,VALID,0,VALID,20.4007,VALID,119,VALID,1.74349,
2005-01-16, 01:36:00,VALID,917.559,VALID,0,VALID,91.6674,VALID,-0.0169808,VALID,20.4074,VALID,94,VALID,1.54669,
2005-01-16, 01:37:00,VALID,917.527,VALID,0,VALID,91.7653,VALID,0,VALID,20.3818,VALID,111,VALID,1.76254,
2005-01-16, 01:38:00,VALID,917.498,VALID,0,VALID,91.8467,VALID,0,VALID,20.3557,VALID,93,VALID,1.2117,
2005-01-16, 01:39:00,VALID,917.486,VALID,0,VALID,92.0349,VALID,0,VALID,20.3266,VALID,120,VALID,1.51944,
2005-01-16, 01:40:00,VALID,917.476,VALID,0,VALID,92.0057,VALID,0,VALID,20.3107,VALID,129,VALID,2.05618,
2005-01-16, 01:41:00,VALID,917.471,VALID,0,VALID,91.7056,VALID,0,VALID,20.3328,VALID,126,VALID,1.68545,
2005-01-16, 01:42:00,VALID,917.472,VALID,0,VALID,91.5759,VALID,0.0169808,VALID,20.3778,VALID,115,VALID,1.43895,
2005-01-16, 01:43:00,VALID,917.479,VALID,0,VALID,91.6306,VALID,0,VALID,20.3781,VALID,102,VALID,1.81813,
2005-01-16, 01:44:00,VALID,917.474,VALID,0,VALID,91.7132,VALID,0,VALID,20.3686,VALID,128,VALID,1.16513,
2005-01-16, 01:45:00,VALID,917.465,VALID,0,VALID,91.7081,VALID,0,VALID,20.3425,VALID,138,VALID,1.63635,
2005-01-16, 01:46:00,VALID,917.458,VALID,0,VALID,91.5504,VALID,0,VALID,20.3423,VALID,129,VALID,1.91116,
2005-01-16, 01:47:00,VALID,917.475,VALID,0,VALID,91.4691,VALID,0,VALID,20.3552,VALID,152,VALID,1.60366,
2005-01-16, 01:48:00,VALID,917.472,VALID,0,VALID,91.4474,VALID,0,VALID,20.3649,VALID,137,VALID,1.71254,
2005-01-16, 01:49:00,VALID,917.456,VALID,0,VALID,91.3266,VALID,0,VALID,20.3843,VALID,147,VALID,1.56541,
2005-01-16, 01:50:00,VALID,917.455,VALID,0,VALID,91.3254,VALID,0,VALID,20.3932,VALID,116,VALID,1.71602,
2005-01-16, 01:51:00,VALID,917.449,VALID,0,VALID,91.3305,VALID,0,VALID,20.4031,VALID,130,VALID,1.38041,
2005-01-16, 01:52:00,VALID,917.461,VALID,0,VALID,91.4271,VALID,0,VALID,20.387,VALID,138,VALID,0.994056,
2005-01-16, 01:53:00,VALID,917.445,VALID,0,VALID,91.5911,VALID,0.0169808,VALID,20.3711,VALID,136,VALID,1.13579,
2005-01-16, 01:54:00,VALID,917.44,VALID,0,VALID,91.7336,VALID,0,VALID,20.3385,VALID,138,VALID,1.1064,
2005-01-16, 01:55:00,VALID,917.44,VALID,0,VALID,91.8861,VALID,0,VALID,20.3127,VALID,151,VALID,0.81529,
2005-01-16, 01:56:00,VALID,917.443,VALID,0,VALID,92.068,VALID,0.0169808,VALID,20.2777,VALID,133,VALID,0.46532,
2005-01-16, 01:57:00,VALID,917.435,VALID,0,VALID,92.335,VALID,-0.0169808,VALID,20.2357,VALID,100,VALID,0.727344,
2005-01-16, 01:58:00,VALID,917.438,VALID,0,VALID,92.6415,VALID,0,VALID,20.1837,VALID,107,VALID,1.02816,
2005-01-16, 01:59:00,VALID,917.428,VALID,0,VALID,92.8068,VALID,0,VALID,20.1415,VALID,120,VALID,0.908558,
2005-01-16, 02:00:00,VALID,917.432,VALID,0,VALID,92.9352,VALID,0,VALID,20.1156,VALID,140,VALID,1.01172,
2005-01-16, 02:01:00,VALID,917.429,VALID,0,VALID,92.9759,VALID,0,VALID,20.093,VALID,113,VALID,1.82645,
2005-01-16, 02:02:00,VALID,917.452,VALID,0,VALID,92.8983,VALID,0,VALID,20.103,VALID,121,VALID,1.37991,
2005-01-16, 02:03:00,VALID,917.455,VALID,0,VALID,93.0115,VALID,0,VALID,20.1062,VALID,100,VALID,0.966667,
2005-01-16, 02:04:00,VALID,917.453,VALID,0,VALID,93.1272,VALID,-0.0169808,VALID,20.0806,VALID,122,VALID,1.10454,
2005-01-16, 02:05:00,VALID,917.45,VALID,0,VALID,93.2188,VALID,-0.118866,VALID,20.0558,VALID,141,VALID,1.42092,
2005-01-16, 02:06:00,VALID,917.443,VALID,0,VALID,93.2569,VALID,-0.101885,VALID,20.0558,VALID,117,VALID,0.967262,
2005-01-16, 02:07:00,VALID,917.428,VALID,0,VALID,93.3727,VALID,-0.0849042,VALID,20.0426,VALID,109,VALID,0.779297,
2005-01-16, 02:08:00,VALID,917.419,VALID,0,VALID,93.5024,VALID,-0.101885,VALID,20.027,VALID,139,VALID,1.09502,
2005-01-16, 02:09:00,VALID,917.398,VALID,0,VALID,93.5736,VALID,-0.101885,VALID,20.0009,VALID,149,VALID,1.13645,
2005-01-16, 02:10:00,VALID,917.385,VALID,0,VALID,93.6791,VALID,-0.101885,VALID,19.9815,VALID,148,VALID,1.29818,
2005-01-16, 02:11:00,VALID,917.367,VALID,0,VALID,93.8177,VALID,-0.101885,VALID,19.9715,VALID,152,VALID,1.42116,
2005-01-16, 02:12:00,VALID,917.365,VALID,0,VALID,93.908,VALID,-0.0849042,VALID,19.9589,VALID,150,VALID,1.63264,
2005-01-16, 02:13:00,VALID,917.361,VALID,0,VALID,93.922,VALID,-0.101885,VALID,19.9594,VALID,136,VALID,1.54989,
2005-01-16, 02:14:00,VALID,917.322,VALID,0,VALID,94.0148,VALID,-0.101885,VALID,19.9594,VALID,114,VALID,1.34318,
2005-01-16, 02:15:00,VALID,917.304,VALID,0,VALID,94.1382,VALID,-0.118866,VALID,19.9562,VALID,127,VALID,1.31436,
2005-01-16, 02:16:00,VALID,917.288,VALID,0,VALID,94.2831,VALID,-0.118866,VALID,19.9268,VALID,135,VALID,1.68731,
2005-01-16, 02:17:00,VALID,917.275,VALID,0,VALID,94.4268,VALID,-0.101885,VALID,19.9139,VALID,127,VALID,1.19861,
2005-01-16, 02:18:00,VALID,917.281,VALID,0,VALID,94.5298,VALID,-0.101885,VALID,19.8943,VALID,111,VALID,1.58743,
2005-01-16, 02:19:00,VALID,917.236,VALID,0,VALID,94.5985,VALID,-0.0679233,VALID,19.8709,VALID,117,VALID,1.16992,
2005-01-16, 02:20:00,VALID,917.225,VALID,0,VALID,94.6239,VALID,0,VALID,19.8804,VALID,119,VALID,1.61406,
2005-01-16, 02:21:00,VALID,917.215,VALID,0,VALID,94.629,VALID,0.0169808,VALID,19.8702,VALID,123,VALID,1.13891,
2005-01-16, 02:22:00,VALID,917.211,VALID,0,VALID,94.5718,VALID,-0.0169808,VALID,19.8704,VALID,125,VALID,1.72344,
2005-01-16, 02:23:00,VALID,917.174,VALID,0,VALID,94.4116,VALID,0.0169808,VALID,19.8958,VALID,125,VALID,1.58251,
2005-01-16, 02:24:00,VALID,917.141,VALID,0,VALID,94.3238,VALID,0.0169808,VALID,19.9216,VALID,129,VALID,1.80762,
2005-01-16, 02:25:00,VALID,917.122,VALID,0,VALID,94.1089,VALID,0,VALID,19.9509,VALID,139,VALID,1.7782,
2005-01-16, 02:26:00,VALID,917.106,VALID,0,VALID,93.8177,VALID,-0.0169808,VALID,19.9932,VALID,118,VALID,1.76603,
2005-01-16, 02:27:00,VALID,917.092,VALID,0,VALID,93.4502,VALID,0,VALID,20.0476,VALID,128,VALID,2.31516,
2005-01-16, 02:28:00,VALID,917.086,VALID,0,VALID,93.2035,VALID,0,VALID,20.1156,VALID,123,VALID,1.84756,
2005-01-16, 02:29:00,VALID,917.101,VALID,0,VALID,93.1883,VALID,-0.0339617,VALID,20.149,VALID,118,VALID,1.50664,
2005-01-16, 02:30:00,VALID,917.098,VALID,0,VALID,93.2544,VALID,0,VALID,20.1291,VALID,111,VALID,1.1609,
2005-01-16, 02:31:00,VALID,917.106,VALID,0,VALID,93.2302,VALID,0,VALID,20.1224,VALID,135,VALID,1.74404,
2005-01-16, 02:32:00,VALID,917.102,VALID,0,VALID,93.0853,VALID,0.0169808,VALID,20.1318,VALID,125,VALID,1.89323,
2005-01-16, 02:33:00,VALID,917.121,VALID,0,VALID,93.0128,VALID,-0.0169808,VALID,20.1514,VALID,115,VALID,1.4373,
2005-01-16, 02:34:00,VALID,917.127,VALID,0,VALID,92.9874,VALID,-0.0509425,VALID,20.1611,VALID,117,VALID,1.37163,
2005-01-16, 02:35:00,VALID,917.125,VALID,0,VALID,92.9594,VALID,-0.101885,VALID,20.1624,VALID,116,VALID,1.25167,
2005-01-16, 02:36:00,VALID,917.124,VALID,0,VALID,92.9416,VALID,-0.118866,VALID,20.1686,VALID,145,VALID,1.38862,
2005-01-16, 02:37:00,VALID,917.129,VALID,0,VALID,92.8678,VALID,-0.0849042,VALID,20.1785,VALID,125,VALID,1.72212,
2005-01-16, 02:38:00,VALID,917.14,VALID,0,VALID,92.8068,VALID,-0.0849042,VALID,20.1977,VALID,116,VALID,1.00039,
2005-01-16, 02:39:00,VALID,917.133,VALID,0,VALID,92.6923,VALID,-0.0849042,VALID,20.2074,VALID,125,VALID,1.45022,
2005-01-16, 02:40:00,VALID,917.155,VALID,0,VALID,92.6631,VALID,-0.0679233,VALID,20.2267,VALID,127,VALID,1.34261,
2005-01-16, 02:41:00,VALID,917.153,VALID,0,VALID,92.7648,VALID,-0.101885,VALID,20.227,VALID,125,VALID,1.21389,
2005-01-16, 02:42:00,VALID,917.15,VALID,0,VALID,92.9505,VALID,-0.0849042,VALID,20.2146,VALID,137,VALID,1.33739,
2005-01-16, 02:43:00,VALID,917.132,VALID,0,VALID,93.0764,VALID,-0.0679233,VALID,20.1678,VALID,127,VALID,0.898074,
2005-01-16, 02:44:00,VALID,917.11,VALID,0,VALID,93.2328,VALID,-0.0849042,VALID,20.1592,VALID,115,VALID,0.937686,
2005-01-16, 02:45:00,VALID,917.099,VALID,0,VALID,93.4744,VALID,-0.0849042,VALID,20.1269,VALID,99,VALID,1.00035,
2005-01-16, 02:46:00,VALID,917.1,VALID,0,VALID,93.763,VALID,-0.0679233,VALID,20.0816,VALID,113,VALID,1.07049,
2005-01-16, 02:47:00,VALID,917.084,VALID,0,VALID,94.0402,VALID,-0.0849042,VALID,20.0364,VALID,129,VALID,0.979403,
2005-01-16, 02:48:00,VALID,917.086,VALID,0,VALID,94.2577,VALID,-0.101885,VALID,19.9912,VALID,135,VALID,0.747332,
2005-01-16, 02:49:00,VALID,917.081,VALID,0,VALID,94.451,VALID,-0.101885,VALID,19.9621,VALID,130,VALID,0.977083,
2005-01-16, 02:50:00,VALID,917.082,VALID,0,VALID,94.5985,VALID,-0.0849042,VALID,19.9231,VALID,140,VALID,1.00818,
2005-01-16, 02:51:00,VALID,917.085,VALID,0,VALID,94.7384,VALID,-0.0679233,VALID,19.8903,VALID,136,VALID,0.567454,
2005-01-16, 02:52:00,VALID,917.105,VALID,0,VALID,94.8808,VALID,-0.0849042,VALID,19.8712,VALID,131,VALID,0.781068,
2005-01-16, 02:53:00,VALID,917.097,VALID,0,VALID,95.0486,VALID,-0.0849042,VALID,19.8421,VALID,105,VALID,0.899164,
2005-01-16, 02:54:00,VALID,917.095,VALID,0,VALID,95.2114,VALID,-0.0679233,VALID,19.8259,VALID,109,VALID,1.14755,
2005-01-16, 02:55:00,VALID,917.075,VALID,0,VALID,95.2559,VALID,-0.0849042,VALID,19.8095,VALID,112,VALID,0.666101,
2005-01-16, 02:56:00,VALID,917.063,VALID,0,VALID,95.3449,VALID,-0.0679233,VALID,19.81,VALID,111,VALID,0.942042,
2005-01-16, 02:57:00,VALID,917.055,VALID,0,VALID,95.4059,VALID,0,VALID,19.8033,VALID,113,VALID,1.36319,
2005-01-16, 02:58:00,VALID,917.039,VALID,0,VALID,95.3398,VALID,-0.0339617,VALID,19.8033,VALID,111,VALID,1.14989,
2005-01-16, 02:59:00,VALID,917.033,VALID,0,VALID,95.3322,VALID,-0.0509425,VALID,19.8163,VALID,123,VALID,1.26163,
2005-01-16, 03:00:00,VALID,917.025,VALID,0,VALID,95.3297,VALID,-0.0509425,VALID,19.823,VALID,134,VALID,1.3577,
2005-01-16, 03:01:00,VALID,917.039,VALID,0,VALID,95.3284,VALID,-0.0509425,VALID,19.8294,VALID,111,VALID,0.923328,
2005-01-16, 03:02:00,VALID,917.04,VALID,0,VALID,95.4555,VALID,-0.0679233,VALID,19.7999,VALID,95,VALID,0.856898,
2005-01-16, 03:03:00,VALID,917.048,VALID,0,VALID,95.6793,VALID,-0.0849042,VALID,19.7772,VALID,111,VALID,1.09598,
2005-01-16, 03:04:00,VALID,917.042,VALID,0,VALID,95.8624,VALID,-0.0339617,VALID,19.7546,VALID,114,VALID,0.96441,
2005-01-16, 03:05:00,VALID,917.035,VALID,0,VALID,95.982,VALID,0.0339617,VALID,19.7444,VALID,137,VALID,0.683061,
2005-01-16, 03:06:00,VALID,917.044,VALID,0,VALID,96.0723,VALID,0.0509425,VALID,19.7114,VALID,124,VALID,0.985283,
2005-01-16, 03:07:00,VALID,917.038,VALID,0,VALID,96.1702,VALID,0,VALID,19.7117,VALID,92,VALID,1.11222,
2005-01-16, 03:08:00,VALID,917.028,VALID,0,VALID,96.2821,VALID,0.0339617,VALID,19.689,VALID,114,VALID,1.39081,
2005-01-16, 03:09:00,VALID,917.013,VALID,0,VALID,96.38,VALID,0,VALID,19.6893,VALID,126,VALID,1.17039,
2005-01-16, 03:10:00,VALID,917.021,VALID,0,VALID,96.4614,VALID,0.0339617,VALID,19.6664,VALID,130,VALID,0.909702,
2005-01-16, 03:11:00,VALID,917.022,VALID,0,VALID,96.5377,VALID,0.0169808,VALID,19.6597,VALID,126,VALID,0.830487,
2005-01-16, 03:12:00,VALID,917.045,VALID,0,VALID,96.6165,VALID,0.0339617,VALID,19.6568,VALID,117,VALID,0.787972,
2005-01-16, 03:13:00,VALID,917.051,VALID,0,VALID,96.7004,VALID,0.0169808,VALID,19.66,VALID,128,VALID,1.04446,
2005-01-16, 03:14:00,VALID,917.051,VALID,0,VALID,96.7513,VALID,0.0169808,VALID,19.654,VALID,119,VALID,0.918341,
2005-01-16, 03:15:00,VALID,917.039,VALID,0,VALID,96.8162,VALID,0,VALID,19.6505,VALID,131,VALID,1.22637,
2005-01-16, 03:16:00,VALID,917.046,VALID,0,VALID,96.8225,VALID,0,VALID,19.6602,VALID,137,VALID,1.00639,
2005-01-16, 03:17:00,VALID,917.054,VALID,0,VALID,96.8212,VALID,0.0509425,VALID,19.6664,VALID,127,VALID,1.15749,
2005-01-16, 03:18:00,VALID,917.036,VALID,0,VALID,96.8174,VALID,0.0169808,VALID,19.6895,VALID,124,VALID,0.921317,
2005-01-16, 03:19:00,VALID,917.023,VALID,0,VALID,96.8492,VALID,0,VALID,19.6861,VALID,114,VALID,0.728237,
2005-01-16, 03:20:00,VALID,917.002,VALID,0,VALID,96.8225,VALID,0,VALID,19.6925,VALID,121,VALID,1.15952,
2005-01-16, 03:21:00,VALID,916.991,VALID,0,VALID,96.7691,VALID,0.0339617,VALID,19.6918,VALID,103,VALID,0.686942,
2005-01-16, 03:22:00,VALID,916.97,VALID,0,VALID,96.7475,VALID,0.0509425,VALID,19.699,VALID,107,VALID,0.83718,
2005-01-16, 03:23:00,VALID,916.964,VALID,0,VALID,96.7805,VALID,0.0509425,VALID,19.6858,VALID,128,VALID,1.12845,
2005-01-16, 03:24:00,VALID,916.939,VALID,0,VALID,96.7984,VALID,0.0339617,VALID,19.6831,VALID,119,VALID,1.35653,
2005-01-16, 03:25:00,VALID,916.946,VALID,0,VALID,96.7805,VALID,0.0509425,VALID,19.6823,VALID,114,VALID,1.20871,
2005-01-16, 03:26:00,VALID,916.957,VALID,0,VALID,96.7856,VALID,0.0509425,VALID,19.6826,VALID,97,VALID,1.11047,
2005-01-16, 03:27:00,VALID,916.937,VALID,0,VALID,96.8327,VALID,0.0169808,VALID,19.6602,VALID,117,VALID,1.45094,
2005-01-16, 03:28:00,VALID,916.932,VALID,0,VALID,96.839,VALID,0.0339617,VALID,19.6605,VALID,127,VALID,1.02697,
2005-01-16, 03:29:00,VALID,916.922,VALID,0,VALID,96.8772,VALID,0.0169808,VALID,19.6406,VALID,106,VALID,1.21738,
2005-01-16, 03:30:00,VALID,916.917,VALID,0,VALID,96.9179,VALID,0.0169808,VALID,19.6346,VALID,102,VALID,1.64555,
2005-01-16, 03:31:00,VALID,916.89,VALID,0,VALID,96.9586,VALID,0.0339617,VALID,19.6287,VALID,123,VALID,1.06193,
2005-01-16, 03:32:00,VALID,916.886,VALID,0,VALID,97.0082,VALID,0,VALID,19.6118,VALID,119,VALID,1.28016,
2005-01-16, 03:33:00,VALID,916.872,VALID,0,VALID,97.0158,VALID,0.0339617,VALID,19.612,VALID,127,VALID,1.14044,
2005-01-16, 03:34:00,VALID,916.862,VALID,0,VALID,97.0501,VALID,0.0169808,VALID,19.612,VALID,121,VALID,1.28216,